TimeEST,TemperatureF,Dew PointF,Humidity,Sea Level PressureIn,VisibilityMPH,Wind Direction,Wind SpeedMPH,Gust SpeedMPH,PrecipitationIn,Events,Conditions,WindDirDegrees,DateUTC
12:54 AM,39.0,25.0,57,30.48,10.0,North,15.0,-,N/A,,Clear,360,2012-11-14 05:54:00
1:54 AM,37.9,25.0,60,30.49,10.0,North,11.5,-,N/A,,Clear,350,2012-11-14 06:54:00
2:54 AM,37.0,25.0,62,30.50,10.0,North,9.2,-,N/A,,Partly Cloudy,360,2012-11-14 07:54:00
3:54 AM,37.9,24.1,57,30.50,10.0,North,9.2,-,N/A,,Mostly Cloudy,360,2012-11-14 08:54:00
4:54 AM,37.0,25.0,62,30.51,10.0,North,8.1,-,N/A,,Mostly Cloudy,350,2012-11-14 09:54:00
5:54 AM,36.0,24.1,62,30.51,10.0,North,9.2,-,N/A,,Partly Cloudy,350,2012-11-14 10:54:00
6:54 AM,35.1,24.1,64,30.53,10.0,North,8.1,-,N/A,,Scattered Clouds,360,2012-11-14 11:54:00
7:54 AM,37.9,25.0,60,30.53,10.0,North,10.4,-,N/A,,Scattered Clouds,360,2012-11-14 12:54:00
8:54 AM,41.0,25.0,53,30.54,10.0,North,10.4,21.9,N/A,,Partly Cloudy,360,2012-11-14 13:54:00
9:54 AM,44.1,24.1,45,30.54,10.0,NNE,15.0,-,N/A,,Scattered Clouds,20,2012-11-14 14:54:00
10:54 AM,45.0,23.0,42,30.52,10.0,North,13.8,19.6,N/A,,Clear,360,2012-11-14 15:54:00
11:54 AM,46.9,23.0,39,30.50,10.0,NNE,15.0,20.7,N/A,,Partly Cloudy,20,2012-11-14 16:54:00
12:54 PM,48.0,24.1,39,30.49,10.0,North,10.4,16.1,N/A,,Partly Cloudy,10,2012-11-14 17:54:00
1:54 PM,48.9,24.1,38,30.48,10.0,North,9.2,19.6,N/A,,Scattered Clouds,10,2012-11-14 18:54:00
2:54 PM,48.9,24.1,38,30.46,10.0,NNE,9.2,-,N/A,,Scattered Clouds,20,2012-11-14 19:54:00
3:54 PM,46.9,25.0,42,30.47,10.0,NE,11.5,-,N/A,,Scattered Clouds,50,2012-11-14 20:54:00
4:54 PM,44.1,26.1,49,30.46,10.0,NE,6.9,-,N/A,,Scattered Clouds,50,2012-11-14 21:54:00
5:54 PM,43.0,27.0,53,30.48,10.0,Variable,6.9,-,N/A,,Scattered Clouds,0,2012-11-14 22:54:00
6:54 PM,39.9,30.0,68,30.48,10.0,East,6.9,-,N/A,,Scattered Clouds,80,2012-11-14 23:54:00
7:54 PM,41.0,30.0,65,30.47,10.0,ENE,3.5,-,N/A,,Scattered Clouds,70,2012-11-15 00:54:00
8:54 PM,39.0,30.0,70,30.46,10.0,NE,5.8,-,N/A,,Partly Cloudy,40,2012-11-15 01:54:00
9:54 PM,41.0,28.9,62,30.48,10.0,East,3.5,-,N/A,,Partly Cloudy,80,2012-11-15 02:54:00
10:54 PM,39.0,26.1,60,30.48,10.0,ENE,6.9,-,N/A,,Partly Cloudy,70,2012-11-15 03:54:00
11:54 PM,37.9,25.0,60,30.47,10.0,NNE,4.6,-,N/A,,Partly Cloudy,20,2012-11-15 04:54:00